Regional Weather Roundup
Issued by NWS

Home | Current Version | Previous Version | Graphics & Text | Print | Product List | Glossary Off
Versions: 1 2 3 4 5 6 7 8 9 10 11 12 13 14 15 16 17 18 19 20 21 22 23 24 25 26 27 28 29 30 31 32 33 34 35 36 37 38 39 40 41 42 43 44 45 46 47 48 49 50

000
ASUS43 KMPX 281510
RWRMN
WEATHER ROUNDUP FOR MINNESOTA
NATIONAL WEATHER SERVICE TWIN CITIES/CHANHASSEN MN
900 AM CST SUN DEC 28 2014


NOTE: "FAIR" INDICATES FEW OR NO CLOUDS BELOW 12,000 FEET WITH NO
SIGNIFICANT WEATHER AND/OR OBSTRUCTIONS TO VISIBILITY. N/A MEANS
CURRENT SKY AND/OR WEATHER CONDITIONS ARE NOT AVAILABLE.

MNZ060>063-068>070-281600-
   Twin Cities Metro

CITY           SKY/WX    TMP DP  RH WIND       PRES   REMARKS
TWIN CITIES    MOCLDY    10   7  87 CALM      30.14R
ST PAUL        CLOUDY    11   8  88 CALM      30.16R
CRYSTAL        CLOUDY    11   7  84 CALM      30.13R
BLAINE         CLOUDY    12  10  92 CALM      30.12R
LAKEVILLE      CLEAR      9   7  92 W3        30.12R
EDEN PRAIRIE   CLEAR      8   5  87 SW3       30.12R
SOUTH ST PAUL  MOCLDY    11   8  85 CALM      30.14R
LAKE ELMO      CLOUDY    10   9  92 CALM      30.14R
$$
MNZ001>005-007-008-013>017-022>024-027-028-281600-
   Northwest Minnesota

CITY           SKY/WX    TMP DP  RH WIND       PRES   REMARKS
BEMIDJI        CLOUDY    -4  -8  84 NW3       30.18R
HALLOCK        CLEAR    -11 -18  70 N5        30.29S WCI -23
ROSEAU         PTCLDY    -9 -15  77 NW5       30.25R WCI -21
WARROAD        CLEAR    -11 -17  77 W5        30.23R WCI -23
THIEF RVR FALL CLEAR     -9 -13  84 NW8       30.24R WCI -26
CROOKSTON      CLEAR     -9 -15  77 N9        30.30R WCI -27
FOSSTON        CLEAR     -8 -11  84 N5        30.22R WCI -19
DETROIT LAKES  CLEAR      1   0  92 N6        30.18R WCI -10
MOORHEAD       PTCLDY    -2  -6  84 N12       30.26R WCI -20
PARK RAPIDS    CLEAR      3  -3  76 N12       30.15R WCI -13
MAHNOMEN       FAIR      -3  -7  84 N5        30.21R WCI -14
$$
MNZ006-009>011-018-025>026-281600-
   North Central Minnesota

CITY           SKY/WX    TMP DP  RH WIND       PRES   REMARKS
BAUDETTE       CLEAR     -8 -13  78 NW8       30.21R WCI -24
FLAG ISLAND    CLEAR    -13 -18  77 NW9       30.22R WCI -31
INTL FALLS     CLEAR     -5 -10  79 NW5       30.18R WCI -16
WASKISH        MOCLDY    -2  -8  78 CALM      30.20R
BIG FORK       CLOUDY     0  -6  78 CALM      30.17R
LONGVILLE      PTCLDY     3   0  85 NW7       30.16R WCI  -9
GRAND RAPIDS   CLEAR      0  -6  78 NW14      30.13R WCI -19
CRANE LAKE     CLEAR     -4  -9  77 CALM      30.18R
ORR            FAIR      -4  -9  77 NW8       30.12R WCI -19
COOK           CLOUDY    -2  -8  78 NW7       30.15R WCI -16
WALKER         FAIR      -1  -5  82 NW3       30.17R
$$
MNZ012-019>021-037-281600-
   Northeast Minnesota

CITY           SKY/WX    TMP DP  RH WIND       PRES   REMARKS
DULUTH         CLEAR      9   0  67 NW9G18    30.08R WCI  -4
ELY            CLOUDY     0  -6  78 NW8       30.10R WCI -15
HIBBING        CLEAR     -1  -8  72 N10       30.14R WCI -17
EVELETH        PTCLDY     0  -6  78 N7        30.13R HAZE    WCI -13
DULUTH HARBOR  CLEAR     16   7  67 NW8       30.16R WCI   5
TWO HARBORS    CLEAR     10   1  67 NW9G18    30.08R WCI  -2
SILVER BAY     CLEAR     10   0  61 NW5G16    30.06R WCI   2
GRAND MARAIS     N/A      7  -3  64 N5        30.11R WCI  -2
G MARAIS ARPRT CLEAR      0  -8  71 NW8G20    29.98R WCI -15
$$
MNZ029>031-032-039>041-046>048-054>057-064-281600-
   West Central Minnesota

CITY           SKY/WX    TMP DP  RH WIND       PRES   REMARKS
FERGUS FALLS   CLOUDY     9   1  72 N9        30.21R WCI  -5
WHEATON        CLOUDY    10   7  85 N13       30.21R WCI  -5
MORRIS         MOCLDY    19  18  93 NW12      30.14R WCI   7
ALEXANDRIA     CLOUDY    18  13  80 N12       30.11R WCI   5
ELBOW LAKE     CLOUDY    16  12  85 N12       30.15R WCI   2
WADENA         MOCLDY    10   7  85 N8        30.14R WCI  -1
GLENWOOD       MOCLDY    18  18 100 N8        30.11R WCI   7
APPLETON       CLOUDY    19  18  93 N9        30.15R FOG     WCI   9
BENSON         CLOUDY    14  12  92 N5        30.13R WCI   6
ORTONVILLE     MOCLDY    16  12  86 N13       30.15R WCI   2
MADISON        CLOUDY    21  19  93 N14       30.15R WCI   8
WILLMAR        CLOUDY    18  12  79 NW3       30.13R
$$
MNZ033>034-036-042>043-049>051-058-059-281600-
   Central Minnesota

CITY           SKY/WX    TMP DP  RH WIND       PRES   REMARKS
ST CLOUD       CLOUDY    19  13  77 CALM      30.11R
SAUK CENTRE    CLOUDY    17  15  93 CALM      30.11R
PAYNESVILLE    CLOUDY    14  14  98 CALM      30.12R
AITKIN         PTCLDY    14   7  73 N7        30.12R WCI   4
PINE RIVER     FLURRIES   9   3  78 N8        30.17R WCI  -4
BRAINERD       MOCLDY    13   8  81 N7        30.13R WCI   3
STAPLES        MOCLDY    10   9  92 NW9       30.14R WCI  -2
LONG PRAIRIE   CLOUDY    18  14  86 NW12      30.12R WCI   5
LITTLE FALLS   FLURRIES  19  14  79 N3        30.13R
LITCHFIELD     CLOUDY    18  18 100 CALM      30.12R FOG
BUFFALO        CLOUDY     9   7  89 CALM      30.13R
MAPLE LAKE     CLEAR     10   9  92 CALM      30.13R
$$
MNZ037-044-045-052-053-281600-
   East Central Minnesota

CITY           SKY/WX    TMP DP  RH WIND       PRES   REMARKS
PRINCETON      CLOUDY    18  16  93 CALM      30.11R
MORA           MOCLDY    19  16  86 CALM      30.13R
CAMBRIDGE      CLOUDY    18  10  73 CALM      30.11R
RUSH CITY      CLOUDY    17  14  87 CALM      30.13R
MOOSE LAKE     CLEAR     14   9  79 N5        30.11R WCI   6
HINCKLEY         N/A     21  14  73 N8        30.12R WCI  12
CLOQUET        MOCLDY    10   3  72 NW15G22   30.10R WCI  -6
MCGREGOR       PTCLDY    12   9  85 NW9       30.13R WCI   0
$$
MNZ071>073-080-081-089-090-097-098-281600-
   Southwest Minnesota

CITY           SKY/WX    TMP DP  RH WIND       PRES   REMARKS
MONTEVIDEO     CLOUDY    16  14  93 N3        30.15R
GRANITE FALLS  CLOUDY    15  13  90 NW3       30.15R
CANBY          CLOUDY    15  13  92 NW5       30.15R WCI   7
MARSHALL       PTCLDY     9   3  78 NW9       30.12R WCI  -5
REDWOOD FALLS  CLEAR     11   9  92 NW5       30.13R WCI   3
OLIVIA         CLOUDY    14  12  92 NW3       30.13R
PIPESTONE      PTCLDY     1   0  92 CALM      30.08R
WINDOM           N/A      7   3  85 CALM      30.10R
WORTHINGTON    PTCLDY    10 N/A N/A CALM      30.10R
JACKSON        CLEAR     12   9  85 CALM      30.10R
TRACY          CLEAR     13  11  91 W3        30.12R
SLAYTON        PTCLDY     5   2  88 NW7       30.10R FOG     WCI  -7
$$
MNZ065>067-074>077-082>085-091>093-281600-
   South Central Minnesota

CITY           SKY/WX    TMP DP  RH WIND       PRES   REMARKS
MANKATO        CLEAR      9   3  78 CALM      30.12R
NEW ULM        CLEAR      5   1  85 NW7       30.13R WCI  -7
ST JAMES       CLEAR     12   9  85 W5        30.13R WCI   4
FAIRMONT       CLEAR     10   7  85 W3        30.12R
GLENCOE        CLOUDY     8   6  93 CALM      30.12R
FARIBAULT      CLEAR      7   5  92 CALM      30.12S
OWATONNA       CLEAR      9   5  85 S3        30.12R
WASECA         CLEAR      9   5  85 S3        30.14R
ALBERT LEA     CLEAR     10   9  92 CALM      30.11S
$$
MNZ078>079-086>088-094>096-281600-
   Southeast Minnesota

CITY           SKY/WX    TMP DP  RH WIND       PRES   REMARKS
ROCHESTER      CLEAR      6   4  91 S3        30.11R
RED WING       CLEAR      7   1  78 CALM      30.14R
STANTON        CLEAR      4   0  83 S3        30.12R
DODGE CENTER   CLEAR      7   5  92 W7        30.10R WCI  -5
WINONA         SUNNY     10   9  92 CALM      30.17S
AUSTIN         PTCLDY     7   3  85 CALM      30.12R
PRESTON        SUNNY      8   6  89 SW10      30.11S WCI  -6
$$
ABBREVIATIONS USED IN REMARKS
   TC - TEMPERATURES IN CELSIUS
  WCI - WIND CHILL INDEX
   HX - HEAT INDEX
  VSB - VISIBILITY
$$


USA.gov is the U.S. government's official web portal to all federal, state and local government web resources and services.